Location: Dal�� Lhota
(48.7500°N, 14.0167°E)
Time: 16:52:33
(UTC+00:00)

A-11 Canister half - Pass Details

Date: 29 July 2021
Orbit: 1526 x 1683 km, 47.3° (Epoch: 16 September)

Event Time Altitude Azimuth Distance (km) Brightness Sun altitude
Rises 19:33:57 0° 283° (WNW) 4,818 12.9 -7.3°
Reaches altitude 10° 19:41:22 10° 247° (WSW) 3,776 11.4 -8.2°
Maximum altitude 19:42:30 10° 240° (WSW) 3,747 11.3 -8.4°
Drops below altitude 10° 19:43:39 10° 232° (SW) 3,759 11.2 -8.5°
Sets 19:50:57 0° 195° (SSW) 4,695 11.3 -9.4°
